Darstellungsparameter: Aktuell verwendete Einstellungen:
Skalierung der Graphiken ... ?
xyx+y,   Skalierungsfaktor:      Skalierung: Modus: x, Faktor: 1
Darstellungszeitraum ... ?
Vom - - bis: - -   Zeitraum: 04.06.2014 - 05.06.2014
Min/Max/Avg-Anzeige ... ?
Zeige MMA aktuell
Zeige MMA Monat
Zeige MMA alles
Zeige --A aktuell
Zeige --A Monat
Zeige --A alles
Keine MMA-Anzeige
MMA:
Keine MMA-Graphiken
MMA-Basis: 04.06.2014 - 05.06.2014
Quicknavigation für Darstellung... ?
Tage:      1T, 2T, 3T, 5T -1T -2T -3T -5T +1T +2T +3T +5T
Wochen: 1W, 2W, 3W -1W -2W -3W +1W +2W +3W
Monate: 1M, 3M, 6M -1M -3M -6M +1M +3M +6M
Jahre:    1J, 3J, 5J, 10J -1J -3J -5J -10J +1J +3J +5J +10J
Nutze für die Darstellung ... ?
Originaldaten oder Mittelwerte auf ...
Stundenbasis Tagesbasis Wochenbasis
Monatsbasis Jahresbasis      Datenbasis: Original-Daten
Darstellen als:
Statistik (Auto) Statistik J:M      Darstellung:
Zur Graphik,    zurück zur Übersicht aller Sensoren.
 
Tabellarische Datenbersicht: ?
 
Sensor: Nr:Datum:Temp:Abs-Feuchte:Windchill:Wind:
Aussen-T/F 1 04-06-2014 00:00:00 13.2 C 9.76 g/m*3 13.2 C 0 km/h
2 04-06-2014 00:05:00 13.2 C 9.76 g/m*3 13.2 C 0 km/h
3 04-06-2014 00:10:00 13.1 C 9.81 g/m*3 13.1 C 1.6 km/h
4 04-06-2014 00:15:00 13.1 C 9.81 g/m*3 13.1 C 0 km/h
5 04-06-2014 00:20:00 13 C 9.75 g/m*3 13 C 0 km/h
6 04-06-2014 00:25:00 13 C 9.75 g/m*3 13 C 0 km/h
7 04-06-2014 00:30:00 12.9 C 9.81 g/m*3 12.9 C 0 km/h
8 04-06-2014 00:35:00 12.9 C 9.69 g/m*3 12.9 C 0 km/h
9 04-06-2014 00:40:00 12.8 C 9.74 g/m*3 12.8 C 0 km/h
10 04-06-2014 00:45:00 12.8 C 9.74 g/m*3 12.8 C 0 km/h
11 04-06-2014 00:50:00 12.8 C 9.74 g/m*3 12.8 C 0 km/h
12 04-06-2014 00:55:00 12.8 C 9.74 g/m*3 12.8 C 0 km/h
13 04-06-2014 01:00:00 12.7 C 9.68 g/m*3 12.7 C 0 km/h
14 04-06-2014 01:05:00 12.7 C 9.68 g/m*3 12.7 C 0 km/h
15 04-06-2014 01:10:00 12.5 C 9.68 g/m*3 12.5 C 0 km/h
16 04-06-2014 01:15:00 12.4 C 9.62 g/m*3 12.4 C 0 km/h
17 04-06-2014 01:20:00 12.3 C 9.56 g/m*3 12.3 C 0 km/h
18 04-06-2014 01:25:00 12.3 C 9.66 g/m*3 12.3 C 0 km/h
19 04-06-2014 01:30:00 12.2 C 9.5 g/m*3 12.2 C 0 km/h
20 04-06-2014 01:35:00 12.1 C 9.54 g/m*3 12.1 C 0 km/h
21 04-06-2014 01:40:00 11.9 C 9.43 g/m*3 11.9 C 0 km/h
22 04-06-2014 01:45:00 11.9 C 9.43 g/m*3 11.9 C 0 km/h
23 04-06-2014 01:50:00 11.9 C 9.43 g/m*3 11.9 C 0 km/h
24 04-06-2014 01:55:00 11.9 C 9.43 g/m*3 11.9 C 0 km/h
25 04-06-2014 02:00:00 11.8 C 9.47 g/m*3 11.8 C 1.6 km/h
Sensor: Nr:Datum:Temp:Abs-Feuchte:Windchill:Wind:
Aussen-T/F 26 04-06-2014 02:05:00 11.8 C 9.47 g/m*3 11.8 C 1.6 km/h
27 04-06-2014 02:10:00 11.8 C 9.47 g/m*3 11.8 C 0 km/h
28 04-06-2014 02:15:00 11.8 C 9.47 g/m*3 11.8 C 0 km/h
29 04-06-2014 02:20:00 11.7 C 9.52 g/m*3 11.7 C 0 km/h
30 04-06-2014 02:25:00 11.7 C 9.52 g/m*3 11.7 C 0 km/h
31 04-06-2014 02:30:00 11.6 C 9.46 g/m*3 11.6 C 0 km/h
32 04-06-2014 02:35:00 11.5 C 9.4 g/m*3 11.5 C 0 km/h
33 04-06-2014 02:40:00 11.4 C 9.34 g/m*3 11.4 C 0 km/h
34 04-06-2014 02:45:00 11.4 C 9.34 g/m*3 11.4 C 0 km/h
35 04-06-2014 02:50:00 11.3 C 9.38 g/m*3 11.3 C 0 km/h
36 04-06-2014 02:55:00 11.3 C 9.38 g/m*3 11.3 C 0 km/h
37 04-06-2014 03:00:00 11.3 C 9.38 g/m*3 11.3 C 0 km/h
38 04-06-2014 03:05:00 11.3 C 9.38 g/m*3 11.3 C 0 km/h
39 04-06-2014 03:10:00 11.2 C 9.33 g/m*3 11.2 C 0 km/h
40 04-06-2014 03:15:00 11.1 C 9.27 g/m*3 11.1 C 0 km/h
41 04-06-2014 03:20:00 11.1 C 9.27 g/m*3 11.1 C 0 km/h
42 04-06-2014 03:25:00 11 C 9.31 g/m*3 11 C 0 km/h
43 04-06-2014 03:30:00 10.9 C 9.25 g/m*3 10.9 C 0 km/h
44 04-06-2014 03:35:00 10.9 C 9.25 g/m*3 10.9 C 0 km/h
45 04-06-2014 03:40:00 10.8 C 9.19 g/m*3 10.8 C 0 km/h
46 04-06-2014 03:45:00 10.8 C 9.19 g/m*3 10.8 C 0 km/h
47 04-06-2014 03:50:00 10.8 C 9.19 g/m*3 10.8 C 0 km/h
48 04-06-2014 03:55:00 10.8 C 9.19 g/m*3 10.8 C 0 km/h
49 04-06-2014 04:00:00 10.8 C 9.19 g/m*3 10.8 C 0 km/h
50 04-06-2014 04:05:00 10.8 C 9.29 g/m*3 10.8 C 0 km/h
Sensor: Nr:Datum:Temp:Abs-Feuchte:Windchill:Wind:
Aussen-T/F 51 04-06-2014 04:10:00 10.8 C 9.29 g/m*3 10.8 C 1.6 km/h
52 04-06-2014 04:15:00 10.7 C 9.23 g/m*3 10.7 C 1.6 km/h
53 04-06-2014 04:20:00 10.7 C 9.23 g/m*3 10.7 C 0 km/h
54 04-06-2014 04:25:00 10.7 C 9.23 g/m*3 10.7 C 0 km/h
55 04-06-2014 04:30:00 10.6 C 9.17 g/m*3 10.6 C 0 km/h
56 04-06-2014 04:35:00 10.5 C 9.12 g/m*3 10.5 C 0 km/h
57 04-06-2014 04:40:00 10.5 C 9.12 g/m*3 10.5 C 0 km/h
58 04-06-2014 04:45:00 10.6 C 9.17 g/m*3 10.6 C 1.6 km/h
59 04-06-2014 04:50:00 10.6 C 9.17 g/m*3 10.6 C 0 km/h
60 04-06-2014 04:55:00 10.6 C 9.17 g/m*3 10.6 C 0 km/h
61 04-06-2014 05:00:00 10.7 C 9.23 g/m*3 10.7 C 0 km/h
62 04-06-2014 05:05:00 10.7 C 9.23 g/m*3 10.7 C 0 km/h
63 04-06-2014 05:10:00 10.8 C 9.39 g/m*3 10.8 C 0 km/h
64 04-06-2014 05:15:00 10.8 C 9.39 g/m*3 10.8 C 0 km/h
65 04-06-2014 05:20:00 10.9 C 9.45 g/m*3 10.9 C 0 km/h
66 04-06-2014 05:25:00 10.9 C 9.35 g/m*3 10.9 C 0 km/h
67 04-06-2014 05:30:00 10.9 C 9.35 g/m*3 10.9 C 0 km/h
68 04-06-2014 05:35:00 10.9 C 9.35 g/m*3 10.9 C 0 km/h
69 04-06-2014 05:40:00 10.9 C 9.35 g/m*3 10.9 C 0 km/h
70 04-06-2014 05:45:00 10.9 C 9.35 g/m*3 10.9 C 0 km/h
71 04-06-2014 05:50:00 10.9 C 9.35 g/m*3 10.9 C 0 km/h
72 04-06-2014 05:55:00 10.9 C 9.35 g/m*3 10.9 C 0 km/h
73 04-06-2014 06:00:00 10.9 C 9.35 g/m*3 10.9 C 0 km/h
74 04-06-2014 06:05:00 11.1 C 9.47 g/m*3 11.1 C 0 km/h
75 04-06-2014 06:10:00 11.2 C 9.53 g/m*3 11.2 C 1.6 km/h
Sensor: Nr:Datum:Temp:Abs-Feuchte:Windchill:Wind:
Aussen-T/F 76 04-06-2014 06:15:00 11.3 C 9.59 g/m*3 11.3 C 0 km/h
77 04-06-2014 06:20:00 11.4 C 9.65 g/m*3 11.4 C 1.6 km/h
78 04-06-2014 06:25:00 11.6 C 9.67 g/m*3 11.6 C 0 km/h
79 04-06-2014 06:30:00 11.7 C 9.73 g/m*3 11.7 C 0 km/h
80 04-06-2014 06:35:00 11.8 C 9.79 g/m*3 11.8 C 0 km/h
81 04-06-2014 06:40:00 11.9 C 9.74 g/m*3 11.9 C 1.6 km/h
82 04-06-2014 06:45:00 12.1 C 9.87 g/m*3 12.1 C 0 km/h
83 04-06-2014 06:50:00 12.1 C 9.76 g/m*3 12.1 C 0 km/h
84 04-06-2014 06:55:00 12.2 C 9.82 g/m*3 12.2 C 0 km/h
85 04-06-2014 07:00:00 12.3 C 9.77 g/m*3 12.3 C 0 km/h
86 04-06-2014 07:05:00 12.4 C 9.83 g/m*3 12.4 C 0 km/h
87 04-06-2014 07:10:00 12.5 C 9.89 g/m*3 12.5 C 0 km/h
88 04-06-2014 07:15:00 12.6 C 9.85 g/m*3 12.6 C 0 km/h
89 04-06-2014 07:20:00 12.7 C 9.91 g/m*3 12.7 C 0 km/h
90 04-06-2014 07:25:00 12.8 C 10.08 g/m*3 12.8 C 1.6 km/h
91 04-06-2014 07:30:00 12.9 C 10.03 g/m*3 12.9 C 0 km/h
92 04-06-2014 07:35:00 13.1 C 10.16 g/m*3 13.1 C 0 km/h
93 04-06-2014 07:40:00 13.3 C 10.17 g/m*3 13.3 C 0 km/h
94 04-06-2014 07:45:00 13.4 C 10.23 g/m*3 13.4 C 0 km/h
95 04-06-2014 07:50:00 13.6 C 10.36 g/m*3 13.6 C 0 km/h
96 04-06-2014 07:55:00 13.7 C 10.3 g/m*3 13.7 C 0 km/h
97 04-06-2014 08:00:00 13.8 C 10.37 g/m*3 13.8 C 0 km/h
98 04-06-2014 08:05:00 14 C 10.49 g/m*3 14 C 0 km/h
99 04-06-2014 08:10:00 14.4 C 10.75 g/m*3 14.4 C 0 km/h
100 04-06-2014 08:15:00 14.8 C 10.77 g/m*3 14.8 C 1.6 km/h
Sensor: Nr:Datum:Temp:Abs-Feuchte:Windchill:Wind:
Aussen-T/F 101 04-06-2014 08:20:00 15.3 C 10.97 g/m*3 15.3 C 1.6 km/h
102 04-06-2014 08:25:00 15.7 C 11.11 g/m*3 15.7 C 1.6 km/h
103 04-06-2014 08:30:00 15.9 C 11.1 g/m*3 15.9 C 1.6 km/h
104 04-06-2014 08:35:00 16.2 C 11.17 g/m*3 16.2 C 1.6 km/h
105 04-06-2014 08:40:00 16.4 C 11.17 g/m*3 16.4 C 1.6 km/h
106 04-06-2014 08:45:00 16.8 C 11.58 g/m*3 16.8 C 1.6 km/h
107 04-06-2014 08:50:00 17.1 C 11.21 g/m*3 17.1 C 6.4 km/h
108 04-06-2014 08:55:00 17.4 C 11.12 g/m*3 17.4 C 4.8 km/h
109 04-06-2014 09:00:00 17.5 C 11.18 g/m*3 17.5 C 3.2 km/h
110 04-06-2014 09:05:00 17.6 C 11.1 g/m*3 17.6 C 1.6 km/h
111 04-06-2014 09:10:00 17.7 C 10.86 g/m*3 17.7 C 9.7 km/h
112 04-06-2014 09:15:00 17.8 C 11.08 g/m*3 17.8 C 3.2 km/h
113 04-06-2014 09:20:00 17.8 C 11.08 g/m*3 17.8 C 4.8 km/h
114 04-06-2014 09:25:00 17.8 C 10.93 g/m*3 17.8 C 3.2 km/h
115 04-06-2014 09:30:00 17.9 C 11.15 g/m*3 17.9 C 8.1 km/h
116 04-06-2014 09:35:00 18.1 C 11.43 g/m*3 18.1 C 4.8 km/h
117 04-06-2014 09:40:00 18.3 C 11.26 g/m*3 18.3 C 4.8 km/h
118 04-06-2014 09:45:00 18.3 C 11.1 g/m*3 18.3 C 14.5 km/h
119 04-06-2014 09:50:00 18.3 C 11.1 g/m*3 18.3 C 12.9 km/h
120 04-06-2014 09:55:00 18.3 C 11.1 g/m*3 18.3 C 4.8 km/h
121 04-06-2014 11:40:00 20.4 C 12.21 g/m*3 20.4 C 6.4 km/h
122 04-06-2014 11:45:00 20.6 C 12.17 g/m*3 20.6 C 3.2 km/h
123 04-06-2014 11:50:00 20.8 C 11.77 g/m*3 20.8 C 3.2 km/h
124 04-06-2014 11:55:00 20.9 C 11.84 g/m*3 20.9 C 3.2 km/h
125 04-06-2014 12:00:00 21 C 11.54 g/m*3 21 C 8.1 km/h
Sensor: Nr:Datum:Temp:Abs-Feuchte:Windchill:Wind:
Aussen-T/F 126 04-06-2014 12:05:00 20.9 C 11.47 g/m*3 20.9 C 3.2 km/h
127 04-06-2014 12:10:00 20.9 C 11.84 g/m*3 20.9 C 3.2 km/h
128 04-06-2014 12:15:00 20.8 C 11.59 g/m*3 20.8 C 3.2 km/h
129 04-06-2014 12:20:00 20.6 C 12.35 g/m*3 20.6 C 1.6 km/h
130 04-06-2014 12:25:00 20.3 C 11.61 g/m*3 20.3 C 3.2 km/h
131 04-06-2014 12:30:00 20.1 C 12.34 g/m*3 20.1 C 0 km/h
132 04-06-2014 12:35:00 19.8 C 11.27 g/m*3 19.8 C 3.2 km/h
133 04-06-2014 12:40:00 19.7 C 11.04 g/m*3 19.7 C 6.4 km/h
134 04-06-2014 12:45:00 19.5 C 10.91 g/m*3 19.5 C 11.3 km/h
135 04-06-2014 12:50:00 19.3 C 10.78 g/m*3 19.3 C 9.7 km/h
136 04-06-2014 12:55:00 19.1 C 10.66 g/m*3 19.1 C 14.5 km/h
137 04-06-2014 13:00:00 18.8 C 10.79 g/m*3 18.8 C 19.3 km/h
138 04-06-2014 13:05:00 18.4 C 10.85 g/m*3 18.4 C 14.5 km/h
139 04-06-2014 13:10:00 18.2 C 11.19 g/m*3 18.2 C 11.3 km/h
140 04-06-2014 13:15:00 17.9 C 11.15 g/m*3 17.9 C 8.1 km/h
141 04-06-2014 13:20:00 17.8 C 10.93 g/m*3 17.8 C 4.8 km/h
142 04-06-2014 13:25:00 17.9 C 11.15 g/m*3 17.9 C 6.4 km/h
143 04-06-2014 13:30:00 18 C 11.21 g/m*3 18 C 9.7 km/h
144 04-06-2014 13:35:00 17.9 C 11.3 g/m*3 17.9 C 12.9 km/h
145 04-06-2014 13:40:00 17.8 C 11.23 g/m*3 17.8 C 8.1 km/h
146 04-06-2014 13:45:00 17.7 C 11.47 g/m*3 17.7 C 9.7 km/h
147 04-06-2014 13:50:00 17.7 C 12.07 g/m*3 17.7 C 8.1 km/h
148 04-06-2014 13:55:00 17.6 C 12 g/m*3 17.6 C 3.2 km/h
149 04-06-2014 14:00:00 17.5 C 11.63 g/m*3 17.5 C 4.8 km/h
150 04-06-2014 14:05:00 17.4 C 11.71 g/m*3 17.4 C 6.4 km/h
Sensor: Nr:Datum:Temp:Abs-Feuchte:Windchill:Wind:
Aussen-T/F 151 04-06-2014 14:10:00 17.3 C 11.93 g/m*3 17.3 C 6.4 km/h
152 04-06-2014 14:15:00 17.2 C 12.01 g/m*3 17.2 C 0 km/h
153 04-06-2014 14:20:00 17.1 C 11.94 g/m*3 17.1 C 0 km/h
154 04-06-2014 14:25:00 16.9 C 11.94 g/m*3 16.9 C 0 km/h
155 04-06-2014 14:30:00 16.7 C 11.94 g/m*3 16.7 C 0 km/h
156 04-06-2014 14:35:00 16.5 C 12.08 g/m*3 16.5 C 0 km/h
157 04-06-2014 14:40:00 16.4 C 12.14 g/m*3 16.4 C 0 km/h
158 04-06-2014 14:45:00 16.5 C 12.36 g/m*3 16.5 C 0 km/h
159 04-06-2014 14:50:00 16.8 C 12.87 g/m*3 16.8 C 0 km/h
160 04-06-2014 14:55:00 17.1 C 13.1 g/m*3 17.1 C 3.2 km/h
161 04-06-2014 15:00:00 17.4 C 13.19 g/m*3 17.4 C 4.8 km/h
162 04-06-2014 15:05:00 17.6 C 12.9 g/m*3 17.6 C 3.2 km/h
163 04-06-2014 15:10:00 17.8 C 12.9 g/m*3 17.8 C 4.8 km/h
164 04-06-2014 15:15:00 17.9 C 12.83 g/m*3 17.9 C 1.6 km/h
165 04-06-2014 15:20:00 17.8 C 12.9 g/m*3 17.8 C 0 km/h
166 04-06-2014 15:25:00 17.6 C 13.05 g/m*3 17.6 C 0 km/h
167 04-06-2014 15:30:00 17.2 C 12.89 g/m*3 17.2 C 0 km/h
168 04-06-2014 15:35:00 17.1 C 13.1 g/m*3 17.1 C 0 km/h
169 04-06-2014 15:40:00 17.2 C 13.33 g/m*3 17.2 C 0 km/h
170 04-06-2014 15:45:00 17.2 C 13.18 g/m*3 17.2 C 4.8 km/h
171 04-06-2014 15:50:00 17.2 C 13.18 g/m*3 17.2 C 3.2 km/h
172 04-06-2014 15:55:00 17.3 C 13.26 g/m*3 17.3 C 0 km/h
173 04-06-2014 16:00:00 17.4 C 13.34 g/m*3 17.4 C 0 km/h
174 04-06-2014 16:05:00 17.5 C 13.42 g/m*3 17.5 C 0 km/h
175 04-06-2014 16:10:00 17.4 C 13.34 g/m*3 17.4 C 0 km/h
Sensor: Nr:Datum:Temp:Abs-Feuchte:Windchill:Wind:
Aussen-T/F 176 04-06-2014 16:15:00 17.4 C 13.34 g/m*3 17.4 C 0 km/h
177 04-06-2014 16:20:00 17.4 C 13.49 g/m*3 17.4 C 0 km/h
178 04-06-2014 16:25:00 17.3 C 13.41 g/m*3 17.3 C 0 km/h
179 04-06-2014 16:30:00 17.2 C 13.33 g/m*3 17.2 C 0 km/h
180 04-06-2014 16:35:00 17.1 C 13.39 g/m*3 17.1 C 0 km/h
181 04-06-2014 16:40:00 16.7 C 13.07 g/m*3 16.7 C 0 km/h
182 04-06-2014 16:45:00 16.6 C 13.14 g/m*3 16.6 C 0 km/h
183 04-06-2014 16:50:00 16.5 C 13.06 g/m*3 16.5 C 1.6 km/h
184 04-06-2014 16:55:00 16.6 C 13.28 g/m*3 16.6 C 0 km/h
185 04-06-2014 17:00:00 16.4 C 12.98 g/m*3 16.4 C 0 km/h
186 04-06-2014 17:05:00 16.6 C 13.28 g/m*3 16.6 C 0 km/h
187 04-06-2014 17:10:00 16.6 C 13.28 g/m*3 16.6 C 0 km/h
188 04-06-2014 17:15:00 16.7 C 13.36 g/m*3 16.7 C 0 km/h
189 04-06-2014 17:20:00 16.8 C 13.58 g/m*3 16.8 C 0 km/h
190 04-06-2014 17:25:00 16.8 C 13.58 g/m*3 16.8 C 0 km/h
191 04-06-2014 17:30:00 16.8 C 13.58 g/m*3 16.8 C 0 km/h
192 04-06-2014 17:35:00 16.8 C 13.58 g/m*3 16.8 C 4.8 km/h
193 04-06-2014 17:40:00 16.8 C 13.58 g/m*3 16.8 C 0 km/h
194 04-06-2014 17:45:00 16.5 C 13.06 g/m*3 16.5 C 3.2 km/h
195 04-06-2014 17:50:00 16.3 C 12.9 g/m*3 16.3 C 1.6 km/h
196 04-06-2014 17:55:00 16.2 C 12.82 g/m*3 16.2 C 0 km/h
197 04-06-2014 18:00:00 16.1 C 12.75 g/m*3 16.1 C 0 km/h
198 04-06-2014 18:05:00 16.1 C 12.88 g/m*3 16.1 C 0 km/h
199 04-06-2014 18:10:00 16.2 C 12.96 g/m*3 16.2 C 0 km/h
200 04-06-2014 18:15:00 16.2 C 13.1 g/m*3 16.2 C 0 km/h
Sensor: Nr:Datum:Temp:Abs-Feuchte:Windchill:Wind:
Aussen-T/F 201 04-06-2014 18:20:00 16.3 C 13.18 g/m*3 16.3 C 0 km/h
202 04-06-2014 18:25:00 16.5 C 13.34 g/m*3 16.5 C 0 km/h
203 04-06-2014 18:30:00 16.6 C 13.28 g/m*3 16.6 C 0 km/h
204 04-06-2014 18:35:00 16.9 C 13.38 g/m*3 16.9 C 6.4 km/h
205 04-06-2014 18:40:00 17.2 C 13.47 g/m*3 17.2 C 0 km/h
206 04-06-2014 18:45:00 17.4 C 13.34 g/m*3 17.4 C 1.6 km/h
207 04-06-2014 18:50:00 17.8 C 13.36 g/m*3 17.8 C 1.6 km/h
208 04-06-2014 18:55:00 17.9 C 13.59 g/m*3 17.9 C 0 km/h
209 04-06-2014 19:00:00 17.9 C 13.44 g/m*3 17.9 C 0 km/h
210 04-06-2014 19:05:00 18.1 C 13.44 g/m*3 18.1 C 1.6 km/h
211 04-06-2014 19:10:00 18.1 C 13.75 g/m*3 18.1 C 3.2 km/h
212 04-06-2014 19:15:00 18.1 C 13.13 g/m*3 18.1 C 1.6 km/h
213 04-06-2014 19:20:00 18 C 13.52 g/m*3 18 C 0 km/h
214 04-06-2014 19:25:00 17.8 C 13.51 g/m*3 17.8 C 0 km/h
215 04-06-2014 19:30:00 17.6 C 13.5 g/m*3 17.6 C 0 km/h
216 04-06-2014 19:35:00 17.6 C 13.5 g/m*3 17.6 C 1.6 km/h
217 04-06-2014 21:45:00 14.6 C 11.89 g/m*3 14.6 C 0 km/h
218 04-06-2014 21:50:00 14.5 C 11.69 g/m*3 14.5 C 0 km/h
219 04-06-2014 21:55:00 14.5 C 11.69 g/m*3 14.5 C 1.6 km/h
220 05-06-2014 00:35:00 13.4 C 10.69 g/m*3 13.4 C 11.3 km/h
221 05-06-2014 00:40:00 13.4 C 10.69 g/m*3 13.4 C 6.4 km/h
222 05-06-2014 00:45:00 13.2 C 10.22 g/m*3 13.2 C 19.3 km/h
223 05-06-2014 00:50:00 13.2 C 10.1 g/m*3 13.2 C 16.1 km/h
224 05-06-2014 00:55:00 13 C 9.98 g/m*3 13 C 8.1 km/h
225 05-06-2014 01:00:00 12.9 C 10.03 g/m*3 12.9 C 4.8 km/h
Sensor: Nr:Datum:Temp:Abs-Feuchte:Windchill:Wind:
Aussen-T/F 226 05-06-2014 01:05:00 12.8 C 9.86 g/m*3 12.8 C 9.7 km/h
227 05-06-2014 01:10:00 12.7 C 9.8 g/m*3 12.7 C 14.5 km/h
228 05-06-2014 01:15:00 12.7 C 10.02 g/m*3 12.7 C 3.2 km/h
229 05-06-2014 01:20:00 12.7 C 10.02 g/m*3 12.7 C 1.6 km/h
230 05-06-2014 01:25:00 12.5 C 9.89 g/m*3 12.5 C 1.6 km/h
231 05-06-2014 01:30:00 12.4 C 9.72 g/m*3 12.4 C 4.8 km/h
232 05-06-2014 01:35:00 12.4 C 9.62 g/m*3 12.4 C 3.2 km/h
233 05-06-2014 01:40:00 12.4 C 9.62 g/m*3 12.4 C 8.1 km/h
234 05-06-2014 01:45:00 12.4 C 9.62 g/m*3 12.4 C 3.2 km/h
235 05-06-2014 01:50:00 12.3 C 9.66 g/m*3 12.3 C 1.6 km/h
236 05-06-2014 01:55:00 12.3 C 9.66 g/m*3 12.3 C 1.6 km/h
237 05-06-2014 02:00:00 12.2 C 9.71 g/m*3 12.2 C 1.6 km/h
238 05-06-2014 02:05:00 12.1 C 9.65 g/m*3 12.1 C 1.6 km/h
239 05-06-2014 02:10:00 12.1 C 9.54 g/m*3 12.1 C 1.6 km/h
240 05-06-2014 02:15:00 12.1 C 9.54 g/m*3 12.1 C 9.7 km/h
241 05-06-2014 02:20:00 12.1 C 9.54 g/m*3 12.1 C 3.2 km/h
242 05-06-2014 02:25:00 12.1 C 9.33 g/m*3 12.1 C 1.6 km/h
243 05-06-2014 02:30:00 12.1 C 9.44 g/m*3 12.1 C 1.6 km/h
244 05-06-2014 02:35:00 12.1 C 9.44 g/m*3 12.1 C 1.6 km/h
245 05-06-2014 02:40:00 12 C 9.38 g/m*3 12 C 1.6 km/h
246 05-06-2014 02:45:00 11.9 C 9.43 g/m*3 11.9 C 0 km/h
247 05-06-2014 02:50:00 11.8 C 9.16 g/m*3 11.8 C 9.7 km/h
248 05-06-2014 02:55:00 11.8 C 8.95 g/m*3 11.8 C 16.1 km/h
249 05-06-2014 03:00:00 11.9 C 8.79 g/m*3 11.9 C 14.5 km/h
250 05-06-2014 03:05:00 11.8 C 8.42 g/m*3 11.8 C 11.3 km/h
Sensor: Nr:Datum:Temp:Abs-Feuchte:Windchill:Wind:
Aussen-T/F 251 05-06-2014 03:10:00 11.6 C 8 g/m*3 11.6 C 20.9 km/h
252 05-06-2014 03:15:00 11.4 C 7.8 g/m*3 11.4 C 20.9 km/h
253 05-06-2014 03:20:00 11.3 C 7.65 g/m*3 11.3 C 16.1 km/h
254 05-06-2014 03:25:00 11.2 C 7.7 g/m*3 11.2 C 16.1 km/h
255 05-06-2014 03:30:00 11.1 C 7.76 g/m*3 11.1 C 8.1 km/h
256 05-06-2014 03:35:00 11.1 C 7.76 g/m*3 11.1 C 9.7 km/h
257 05-06-2014 03:40:00 11.1 C 7.76 g/m*3 11.1 C 1.6 km/h
258 05-06-2014 03:45:00 10 C 8.08 g/m*3 10 C 1.6 km/h
259 05-06-2014 03:50:00 9.7 C 8.11 g/m*3 9.7 C 3.2 km/h
260 05-06-2014 03:55:00 9.4 C 8.05 g/m*3 9.4 C 1.6 km/h
261 05-06-2014 04:00:00 9.1 C 7.99 g/m*3 9.1 C 1.6 km/h
262 05-06-2014 04:05:00 8.9 C 7.97 g/m*3 8.9 C 1.6 km/h
263 05-06-2014 04:10:00 8.8 C 7.92 g/m*3 8.8 C 1.6 km/h
264 05-06-2014 04:15:00 8.8 C 8.01 g/m*3 8.8 C 1.6 km/h
265 05-06-2014 04:20:00 8.8 C 8.01 g/m*3 8.8 C 1.6 km/h
266 05-06-2014 04:25:00 8.7 C 7.96 g/m*3 8.7 C 0 km/h
267 05-06-2014 04:30:00 8.7 C 7.96 g/m*3 8.7 C 1.6 km/h
268 05-06-2014 04:35:00 8.7 C 7.96 g/m*3 8.7 C 0 km/h
269 05-06-2014 04:40:00 8.7 C 7.96 g/m*3 8.7 C 1.6 km/h
270 05-06-2014 04:45:00 8.8 C 8.01 g/m*3 8.8 C 3.2 km/h
271 05-06-2014 04:50:00 8.9 C 7.97 g/m*3 8.9 C 3.2 km/h
272 05-06-2014 04:55:00 9.1 C 7.99 g/m*3 9.1 C 3.2 km/h
273 05-06-2014 05:00:00 9.2 C 8.04 g/m*3 9.2 C 3.2 km/h
274 05-06-2014 05:05:00 9.1 C 7.99 g/m*3 9.1 C 1.6 km/h
275 05-06-2014 05:10:00 9 C 7.93 g/m*3 9 C 0 km/h
Sensor: Nr:Datum:Temp:Abs-Feuchte:Windchill:Wind:
Aussen-T/F 276 05-06-2014 05:15:00 8.9 C 7.97 g/m*3 8.9 C 0 km/h
277 05-06-2014 05:20:00 8.8 C 7.92 g/m*3 8.8 C 0 km/h
278 05-06-2014 05:25:00 8.7 C 7.87 g/m*3 8.7 C 0 km/h
279 05-06-2014 05:30:00 8.6 C 7.82 g/m*3 8.6 C 0 km/h
280 05-06-2014 05:35:00 8.6 C 7.91 g/m*3 8.6 C 1.6 km/h
281 05-06-2014 05:40:00 8.5 C 7.94 g/m*3 8.5 C 0 km/h
282 05-06-2014 05:45:00 8.5 C 7.94 g/m*3 8.5 C 0 km/h
283 05-06-2014 05:50:00 8.5 C 7.94 g/m*3 8.5 C 0 km/h
284 05-06-2014 05:55:00 8.5 C 8.03 g/m*3 8.5 C 0 km/h
285 05-06-2014 06:00:00 8.5 C 8.03 g/m*3 8.5 C 0 km/h
286 05-06-2014 06:05:00 8.5 C 8.03 g/m*3 8.5 C 0 km/h
287 05-06-2014 06:10:00 8.5 C 8.11 g/m*3 8.5 C 0 km/h
288 05-06-2014 06:15:00 8.5 C 8.11 g/m*3 8.5 C 0 km/h
289 05-06-2014 06:20:00 8.6 C 8.16 g/m*3 8.6 C 0 km/h
290 05-06-2014 06:25:00 8.7 C 8.22 g/m*3 8.7 C 0 km/h
291 05-06-2014 06:30:00 8.7 C 8.22 g/m*3 8.7 C 0 km/h
292 05-06-2014 06:35:00 8.7 C 8.22 g/m*3 8.7 C 0 km/h
293 05-06-2014 06:40:00 8.7 C 8.22 g/m*3 8.7 C 0 km/h
294 05-06-2014 06:45:00 8.8 C 8.27 g/m*3 8.8 C 0 km/h
295 05-06-2014 06:50:00 8.8 C 8.27 g/m*3 8.8 C 0 km/h
296 05-06-2014 06:55:00 8.9 C 8.32 g/m*3 8.9 C 0 km/h
297 05-06-2014 07:00:00 8.9 C 8.32 g/m*3 8.9 C 1.6 km/h
298 05-06-2014 07:05:00 9 C 8.38 g/m*3 9 C 0 km/h
299 05-06-2014 07:10:00 9.1 C 8.43 g/m*3 9.1 C 0 km/h
300 05-06-2014 07:15:00 9.1 C 8.43 g/m*3 9.1 C 0 km/h
Sensor: Nr:Datum:Temp:Abs-Feuchte:Windchill:Wind:
Aussen-T/F 301 05-06-2014 07:20:00 9.2 C 8.48 g/m*3 9.2 C 3.2 km/h
302 05-06-2014 07:25:00 9.3 C 8.54 g/m*3 8.56 C 6.4 km/h
303 05-06-2014 07:30:00 9.4 C 8.5 g/m*3 7.97 C 9.7 km/h
304 05-06-2014 07:35:00 9.7 C 8.57 g/m*3 8.33 C 9.7 km/h
305 05-06-2014 07:40:00 9.9 C 8.59 g/m*3 9.25 C 6.4 km/h
306 05-06-2014 07:45:00 10.3 C 8.71 g/m*3 9.34 C 8.1 km/h
307 05-06-2014 07:50:00 10.6 C 8.59 g/m*3 9.69 C 8.1 km/h
308 05-06-2014 07:55:00 10.9 C 8.65 g/m*3 9.28 C 12.9 km/h
309 05-06-2014 08:00:00 11.2 C 8.62 g/m*3 11.2 C 14.5 km/h
310 05-06-2014 08:05:00 11.4 C 8.72 g/m*3 11.4 C 12.9 km/h
311 05-06-2014 08:10:00 11.6 C 8.73 g/m*3 11.6 C 8.1 km/h
312 05-06-2014 08:15:00 11.7 C 8.79 g/m*3 11.7 C 4.8 km/h
313 05-06-2014 08:20:00 11.8 C 8.74 g/m*3 11.8 C 20.9 km/h
314 05-06-2014 08:25:00 11.8 C 8.74 g/m*3 11.8 C 8.1 km/h
315 05-06-2014 08:30:00 12 C 8.85 g/m*3 12 C 4.8 km/h
316 05-06-2014 08:35:00 12.2 C 8.85 g/m*3 12.2 C 8.1 km/h
317 05-06-2014 08:40:00 12.2 C 8.85 g/m*3 12.2 C 6.4 km/h
318 05-06-2014 08:45:00 12.3 C 8.69 g/m*3 12.3 C 8.1 km/h
319 05-06-2014 08:50:00 12.6 C 8.85 g/m*3 12.6 C 6.4 km/h
320 05-06-2014 08:55:00 12.8 C 9.07 g/m*3 12.8 C 6.4 km/h
321 05-06-2014 09:00:00 12.9 C 8.9 g/m*3 12.9 C 3.2 km/h
322 05-06-2014 09:05:00 13.1 C 8.9 g/m*3 13.1 C 8.1 km/h
323 05-06-2014 09:10:00 13.1 C 8.9 g/m*3 13.1 C 9.7 km/h
324 05-06-2014 09:15:00 13.2 C 8.61 g/m*3 13.2 C 17.7 km/h
325 05-06-2014 09:20:00 13.1 C 8.56 g/m*3 13.1 C 9.7 km/h
Sensor: Nr:Datum:Temp:Abs-Feuchte:Windchill:Wind:
Aussen-T/F 326 05-06-2014 09:25:00 13.2 C 8.61 g/m*3 13.2 C 12.9 km/h
327 05-06-2014 09:30:00 13.3 C 8.43 g/m*3 13.3 C 11.3 km/h
328 05-06-2014 09:35:00 13.4 C 8.6 g/m*3 13.4 C 12.9 km/h
329 05-06-2014 09:40:00 13.6 C 8.24 g/m*3 13.6 C 22.5 km/h
330 05-06-2014 09:45:00 13.7 C 8.53 g/m*3 13.7 C 17.7 km/h
331 05-06-2014 09:50:00 13.9 C 8.15 g/m*3 13.9 C 16.1 km/h
332 05-06-2014 09:55:00 14.2 C 8.3 g/m*3 14.2 C 22.5 km/h
333 05-06-2014 10:00:00 14.3 C 8.23 g/m*3 14.3 C 27.4 km/h
334 05-06-2014 10:05:00 14.5 C 8.46 g/m*3 14.5 C 14.5 km/h
335 05-06-2014 10:10:00 14.7 C 8.44 g/m*3 14.7 C 19.3 km/h
336 05-06-2014 10:15:00 14.8 C 8.36 g/m*3 14.8 C 16.1 km/h
337 05-06-2014 10:20:00 15 C 8.21 g/m*3 15 C 20.9 km/h
338 05-06-2014 10:25:00 15.1 C 8.26 g/m*3 15.1 C 16.1 km/h
339 05-06-2014 10:30:00 14.8 C 8.23 g/m*3 14.8 C 14.5 km/h
340 05-06-2014 10:35:00 14.6 C 8.13 g/m*3 14.6 C 12.9 km/h
341 05-06-2014 10:40:00 14.7 C 8.31 g/m*3 14.7 C 8.1 km/h
342 05-06-2014 10:45:00 14.8 C 8.23 g/m*3 14.8 C 19.3 km/h
343 05-06-2014 10:50:00 14.8 C 8.23 g/m*3 14.8 C 20.9 km/h
344 05-06-2014 10:55:00 15 C 8.21 g/m*3 15 C 19.3 km/h
345 05-06-2014 11:00:00 15.2 C 8.44 g/m*3 15.2 C 16.1 km/h
346 05-06-2014 11:05:00 15.3 C 8.1 g/m*3 15.3 C 24.1 km/h
347 05-06-2014 11:10:00 15.3 C 8.1 g/m*3 15.3 C 17.7 km/h
348 05-06-2014 11:15:00 15.5 C 8.33 g/m*3 15.5 C 12.9 km/h
349 05-06-2014 11:20:00 15.7 C 8.03 g/m*3 15.7 C 20.9 km/h
350 05-06-2014 11:25:00 15.5 C 8.06 g/m*3 15.5 C 19.3 km/h
Sensor: Nr:Datum:Temp:Abs-Feuchte:Windchill:Wind:
Aussen-T/F 351 05-06-2014 11:30:00 15.6 C 8.38 g/m*3 15.6 C 14.5 km/h
352 05-06-2014 11:35:00 16.1 C 8.5 g/m*3 16.1 C 16.1 km/h
353 05-06-2014 11:40:00 16.4 C 8.1 g/m*3 16.4 C 20.9 km/h
354 05-06-2014 11:45:00 16.6 C 8.05 g/m*3 16.6 C 17.7 km/h
355 05-06-2014 11:50:00 16.6 C 8.05 g/m*3 16.6 C 19.3 km/h
356 05-06-2014 11:55:00 16.8 C 8.29 g/m*3 16.8 C 16.1 km/h
357 05-06-2014 12:00:00 16.8 C 7.72 g/m*3 16.8 C 16.1 km/h
358 05-06-2014 12:05:00 16.7 C 7.82 g/m*3 16.7 C 29 km/h
359 05-06-2014 12:10:00 16.4 C 7.82 g/m*3 16.4 C 19.3 km/h
360 05-06-2014 12:15:00 16.6 C 7.91 g/m*3 16.6 C 20.9 km/h
361 05-06-2014 12:20:00 16.7 C 7.96 g/m*3 16.7 C 14.5 km/h
362 05-06-2014 12:25:00 16.7 C 8.24 g/m*3 16.7 C 9.7 km/h
363 05-06-2014 12:30:00 16.7 C 8.1 g/m*3 16.7 C 17.7 km/h
364 05-06-2014 12:35:00 17.1 C 7.86 g/m*3 17.1 C 20.9 km/h
365 05-06-2014 12:40:00 17.1 C 8.15 g/m*3 17.1 C 16.1 km/h
366 05-06-2014 12:45:00 17 C 7.81 g/m*3 17 C 20.9 km/h
367 05-06-2014 12:50:00 17.1 C 7.86 g/m*3 17.1 C 17.7 km/h
368 05-06-2014 12:55:00 17.3 C 7.96 g/m*3 17.3 C 24.1 km/h
369 05-06-2014 13:00:00 17.3 C 7.96 g/m*3 17.3 C 16.1 km/h
370 05-06-2014 13:05:00 17.4 C 7.85 g/m*3 17.4 C 16.1 km/h
371 05-06-2014 13:10:00 17.6 C 7.95 g/m*3 17.6 C 16.1 km/h
372 05-06-2014 13:15:00 17.8 C 7.74 g/m*3 17.8 C 16.1 km/h
373 05-06-2014 13:20:00 17.9 C 7.79 g/m*3 17.9 C 20.9 km/h
374 05-06-2014 13:25:00 17.9 C 7.79 g/m*3 17.9 C 19.3 km/h
375 05-06-2014 13:30:00 17.6 C 7.65 g/m*3 17.6 C 12.9 km/h
Sensor: Nr:Datum:Temp:Abs-Feuchte:Windchill:Wind:
Aussen-T/F 376 05-06-2014 13:35:00 17.6 C 7.35 g/m*3 17.6 C 11.3 km/h
377 05-06-2014 13:40:00 17.5 C 7.6 g/m*3 17.5 C 14.5 km/h
378 05-06-2014 13:45:00 17.6 C 7.95 g/m*3 17.6 C 14.5 km/h
379 05-06-2014 13:50:00 18 C 7.83 g/m*3 18 C 11.3 km/h
380 05-06-2014 13:55:00 18.1 C 7.73 g/m*3 18.1 C 14.5 km/h
381 05-06-2014 14:00:00 18.1 C 7.57 g/m*3 18.1 C 17.7 km/h
382 05-06-2014 14:05:00 17.9 C 7.48 g/m*3 17.9 C 16.1 km/h
383 05-06-2014 14:10:00 17.9 C 7.48 g/m*3 17.9 C 12.9 km/h
384 05-06-2014 14:15:00 17.8 C 7.74 g/m*3 17.8 C 16.1 km/h
385 05-06-2014 14:20:00 18.2 C 7.93 g/m*3 18.2 C 14.5 km/h
386 05-06-2014 14:25:00 18.4 C 7.71 g/m*3 18.4 C 12.9 km/h
387 05-06-2014 14:30:00 18.3 C 7.35 g/m*3 18.3 C 14.5 km/h
388 05-06-2014 14:35:00 18.1 C 7.57 g/m*3 18.1 C 16.1 km/h
389 05-06-2014 14:40:00 17.9 C 7.33 g/m*3 17.9 C 17.7 km/h
390 05-06-2014 14:45:00 17.7 C 7.39 g/m*3 17.7 C 14.5 km/h
391 05-06-2014 14:50:00 17.7 C 7.85 g/m*3 17.7 C 8.1 km/h
392 05-06-2014 14:55:00 17.8 C 7.89 g/m*3 17.8 C 6.4 km/h
393 05-06-2014 15:00:00 17.9 C 7.79 g/m*3 17.9 C 12.9 km/h
394 05-06-2014 15:05:00 18.4 C 7.71 g/m*3 18.4 C 11.3 km/h
395 05-06-2014 15:10:00 18.9 C 7.94 g/m*3 18.9 C 12.9 km/h
396 05-06-2014 15:15:00 19 C 7.33 g/m*3 19 C 19.3 km/h
397 05-06-2014 15:20:00 18.7 C 7.36 g/m*3 18.7 C 12.9 km/h
398 05-06-2014 15:25:00 18.4 C 7.24 g/m*3 18.4 C 9.7 km/h
399 05-06-2014 15:30:00 18.3 C 7.51 g/m*3 18.3 C 14.5 km/h
400 05-06-2014 15:35:00 18.1 C 7.73 g/m*3 18.1 C 14.5 km/h
Sensor: Nr:Datum:Temp:Abs-Feuchte:Windchill:Wind:
Aussen-T/F 401 05-06-2014 15:40:00 18.3 C 7.66 g/m*3 18.3 C 19.3 km/h
402 05-06-2014 15:45:00 18.9 C 7.61 g/m*3 18.9 C 14.5 km/h
403 05-06-2014 15:50:00 18.9 C 7.61 g/m*3 18.9 C 12.9 km/h
404 05-06-2014 15:55:00 18.7 C 7.52 g/m*3 18.7 C 22.5 km/h
405 05-06-2014 16:00:00 18.6 C 7.48 g/m*3 18.6 C 20.9 km/h
406 05-06-2014 16:05:00 19.2 C 7.42 g/m*3 19.2 C 16.1 km/h
407 05-06-2014 16:10:00 19.7 C 7.47 g/m*3 19.7 C 24.1 km/h
408 05-06-2014 16:15:00 20.1 C 7.65 g/m*3 20.1 C 16.1 km/h
409 05-06-2014 16:20:00 20.1 C 7.3 g/m*3 20.1 C 12.9 km/h
410 05-06-2014 16:25:00 19.7 C 7.81 g/m*3 19.7 C 12.9 km/h
411 05-06-2014 16:30:00 19.6 C 7.43 g/m*3 19.6 C 12.9 km/h
412 05-06-2014 16:35:00 19.8 C 7.52 g/m*3 19.8 C 14.5 km/h
413 05-06-2014 16:40:00 19.8 C 7.34 g/m*3 19.8 C 17.7 km/h
414 05-06-2014 16:45:00 19.6 C 6.92 g/m*3 19.6 C 16.1 km/h
415 05-06-2014 16:50:00 19.8 C 7.52 g/m*3 19.8 C 12.9 km/h
416 05-06-2014 16:55:00 20.1 C 6.95 g/m*3 20.1 C 11.3 km/h
417 05-06-2014 17:00:00 19.6 C 7.09 g/m*3 19.6 C 11.3 km/h
418 05-06-2014 17:05:00 19.2 C 7.09 g/m*3 19.2 C 11.3 km/h
419 05-06-2014 17:10:00 18.8 C 7.25 g/m*3 18.8 C 4.8 km/h
420 05-06-2014 17:15:00 18.6 C 7.48 g/m*3 18.6 C 6.4 km/h
421 05-06-2014 17:20:00 18.6 C 7.48 g/m*3 18.6 C 8.1 km/h
422 05-06-2014 17:25:00 18.7 C 7.52 g/m*3 18.7 C 11.3 km/h
423 05-06-2014 17:30:00 18.7 C 7.84 g/m*3 18.7 C 9.7 km/h
424 05-06-2014 17:35:00 18.7 C 7.36 g/m*3 18.7 C 9.7 km/h
425 05-06-2014 17:40:00 18.6 C 7.64 g/m*3 18.6 C 9.7 km/h
Sensor: Nr:Datum:Temp:Abs-Feuchte:Windchill:Wind:
Aussen-T/F 426 05-06-2014 17:45:00 19.2 C 7.42 g/m*3 19.2 C 12.9 km/h
427 05-06-2014 17:50:00 20.1 C 7.3 g/m*3 20.1 C 14.5 km/h
428 05-06-2014 17:55:00 20.5 C 6.94 g/m*3 20.5 C 17.7 km/h
429 05-06-2014 18:00:00 20.8 C 7.42 g/m*3 20.8 C 16.1 km/h
430 05-06-2014 18:05:00 20.8 C 7.24 g/m*3 20.8 C 14.5 km/h
431 05-06-2014 18:10:00 21 C 7.14 g/m*3 21 C 19.3 km/h
432 05-06-2014 18:15:00 20.8 C 7.42 g/m*3 20.8 C 17.7 km/h
433 05-06-2014 18:20:00 20.7 C 7.02 g/m*3 20.7 C 19.3 km/h
434 05-06-2014 18:25:00 20.7 C 7.38 g/m*3 20.7 C 11.3 km/h
435 05-06-2014 18:30:00 20.7 C 7.38 g/m*3 20.7 C 16.1 km/h
436 05-06-2014 18:35:00 20.6 C 7.34 g/m*3 20.6 C 24.1 km/h
437 05-06-2014 18:40:00 20.7 C 7.02 g/m*3 20.7 C 17.7 km/h
438 05-06-2014 18:45:00 20.7 C 7.02 g/m*3 20.7 C 14.5 km/h
439 05-06-2014 18:50:00 20.7 C 6.84 g/m*3 20.7 C 11.3 km/h
440 05-06-2014 18:55:00 20.5 C 7.12 g/m*3 20.5 C 9.7 km/h
441 05-06-2014 19:00:00 20.6 C 7.16 g/m*3 20.6 C 11.3 km/h
442 05-06-2014 19:05:00 20.6 C 6.8 g/m*3 20.6 C 14.5 km/h
443 05-06-2014 19:10:00 20.3 C 7.03 g/m*3 20.3 C 17.7 km/h
444 05-06-2014 19:15:00 20.1 C 7.13 g/m*3 20.1 C 9.7 km/h
445 05-06-2014 19:20:00 19.9 C 6.87 g/m*3 19.9 C 16.1 km/h
446 05-06-2014 19:25:00 19.8 C 6.66 g/m*3 19.8 C 14.5 km/h
447 05-06-2014 19:30:00 19.7 C 6.62 g/m*3 19.7 C 9.7 km/h
448 05-06-2014 19:35:00 19.6 C 6.92 g/m*3 19.6 C 12.9 km/h
449 05-06-2014 19:40:00 19.6 C 7.09 g/m*3 19.6 C 14.5 km/h
450 05-06-2014 19:45:00 19.4 C 6.51 g/m*3 19.4 C 14.5 km/h
Sensor: Nr:Datum:Temp:Abs-Feuchte:Windchill:Wind:
Aussen-T/F 451 05-06-2014 19:50:00 19.3 C 6.63 g/m*3 19.3 C 20.9 km/h
452 05-06-2014 19:55:00 19.2 C 6.6 g/m*3 19.2 C 9.7 km/h
453 05-06-2014 20:00:00 19.2 C 6.76 g/m*3 19.2 C 14.5 km/h
454 05-06-2014 20:05:00 19.1 C 6.56 g/m*3 19.1 C 8.1 km/h
455 05-06-2014 20:10:00 19 C 6.68 g/m*3 19 C 11.3 km/h
456 05-06-2014 20:15:00 19 C 6.68 g/m*3 19 C 11.3 km/h
457 05-06-2014 20:20:00 18.9 C 6.97 g/m*3 18.9 C 4.8 km/h
458 05-06-2014 20:25:00 18.8 C 7.57 g/m*3 18.8 C 4.8 km/h
459 05-06-2014 20:30:00 18.7 C 7.68 g/m*3 18.7 C 6.4 km/h
460 05-06-2014 20:35:00 18.5 C 7.44 g/m*3 18.5 C 8.1 km/h
461 05-06-2014 20:40:00 18.3 C 8.6 g/m*3 18.3 C 1.6 km/h
462 05-06-2014 20:45:00 17.8 C 8.8 g/m*3 17.8 C 1.6 km/h
463 05-06-2014 20:50:00 17.4 C 8.45 g/m*3 17.4 C 1.6 km/h
464 05-06-2014 20:55:00 17.1 C 8.73 g/m*3 17.1 C 1.6 km/h
465 05-06-2014 21:00:00 16.8 C 8.72 g/m*3 16.8 C 1.6 km/h
466 05-06-2014 21:05:00 16.4 C 9.07 g/m*3 16.4 C 0 km/h
467 05-06-2014 21:10:00 15.9 C 8.94 g/m*3 15.9 C 1.6 km/h
468 05-06-2014 21:15:00 15.6 C 8.64 g/m*3 15.6 C 1.6 km/h
469 05-06-2014 21:20:00 15.4 C 8.15 g/m*3 15.4 C 1.6 km/h
470 05-06-2014 21:25:00 15.1 C 8.64 g/m*3 15.1 C 1.6 km/h
471 05-06-2014 21:30:00 14.8 C 8.49 g/m*3 14.8 C 1.6 km/h
472 05-06-2014 21:35:00 14.6 C 8.51 g/m*3 14.6 C 1.6 km/h
473 05-06-2014 21:40:00 14.3 C 8.48 g/m*3 14.3 C 1.6 km/h
474 05-06-2014 21:45:00 14.2 C 8.43 g/m*3 14.2 C 1.6 km/h
475 05-06-2014 21:50:00 14.1 C 8.37 g/m*3 14.1 C 1.6 km/h
Sensor: Nr:Datum:Temp:Abs-Feuchte:Windchill:Wind:
Aussen-T/F 476 05-06-2014 21:55:00 13.9 C 8.39 g/m*3 13.9 C 1.6 km/h
477 05-06-2014 22:00:00 13.7 C 8.41 g/m*3 13.7 C 0 km/h
478 05-06-2014 22:05:00 13.6 C 8.36 g/m*3 13.6 C 0 km/h
479 05-06-2014 22:10:00 13.4 C 8.37 g/m*3 13.4 C 0 km/h
480 05-06-2014 22:15:00 13.2 C 8.38 g/m*3 13.2 C 0 km/h
481 05-06-2014 22:20:00 12.9 C 8.23 g/m*3 12.9 C 0 km/h
482 05-06-2014 22:25:00 12.8 C 8.29 g/m*3 12.8 C 0 km/h
483 05-06-2014 22:30:00 12.7 C 8.24 g/m*3 12.7 C 0 km/h
484 05-06-2014 22:35:00 12.6 C 8.3 g/m*3 12.6 C 0 km/h
485 05-06-2014 22:40:00 12.4 C 8.3 g/m*3 12.4 C 0 km/h
486 05-06-2014 22:45:00 12.3 C 8.25 g/m*3 12.3 C 0 km/h
487 05-06-2014 22:50:00 12.1 C 8.26 g/m*3 12.1 C 0 km/h
488 05-06-2014 22:55:00 11.9 C 8.05 g/m*3 11.9 C 0 km/h
489 05-06-2014 23:00:00 11.8 C 8 g/m*3 11.8 C 0 km/h
490 05-06-2014 23:05:00 11.7 C 7.95 g/m*3 11.7 C 0 km/h
491 05-06-2014 23:10:00 11.6 C 8 g/m*3 11.6 C 0 km/h
492 05-06-2014 23:15:00 11.5 C 7.85 g/m*3 11.5 C 0 km/h
493 05-06-2014 23:20:00 11.3 C 7.75 g/m*3 11.3 C 0 km/h
494 05-06-2014 23:25:00 11.2 C 7.91 g/m*3 11.2 C 0 km/h
495 05-06-2014 23:30:00 11.1 C 7.96 g/m*3 11.1 C 0 km/h
496 05-06-2014 23:35:00 10.9 C 7.76 g/m*3 10.9 C 0 km/h
497 05-06-2014 23:40:00 10.8 C 7.71 g/m*3 10.8 C 0 km/h
498 05-06-2014 23:45:00 10.8 C 7.81 g/m*3 10.8 C 3.2 km/h
499 05-06-2014 23:50:00 10.8 C 7.81 g/m*3 10.8 C 3.2 km/h
500 05-06-2014 23:55:00 10.8 C 7.81 g/m*3 10.8 C 0 km/h

Legende:
   Min
   Max


Maximal/Minimal-Werte vom 04.06.2014 - 05.06.2014

Sensor Min Max Avg
Temp
(Aussen-T/F)
8.5 °C
05-06-2014  05:40:00
21 °C
04-06-2014  12:00:00
14.73 °C
Abs-Feuchte
(Aussen-T/F)
6.51 g/m*3
05-06-2014  19:45:00
13.75 g/m*3
04-06-2014  19:10:00
9.39 g/m*3
Windchill
(Aussen-T/F)
7.97 C
05-06-2014  07:30:00
21 C
04-06-2014  12:00:00
14.69 C

Die Daten stammen von einer Davis Vantage Pro 2 Wetter-Station und werden unter Linux mit der Software wview2wettercgi und aufbereitet. Alle Angaben erfolgen ohne Gewähr für ihre Vollständigkeit oder Richtigkeit.
Kontakt: Rainer Krienke krienke@uni-koblenz.de . Meine Webseiten an der Uni Koblenz oder privat.
Version: $Revision: 0.78 $